This is the latest recevied weather packets stored in our database for station/object OK1FRN-6. If no packets are shown the sender has not sent any weather packets the latest 1 day(s).
| Time | Temp. | Humidity | Pressure | Rain* | Wind** | Luminosity | Snow |
|---|---|---|---|---|---|---|---|
| 1777978980 | 28.89° C | 34% | 1007.7 hPa | - | 0.89 m/s, 3° | - | - |
| 1777978673 | 28.89° C | 36% | 1007.8 hPa | - | 1.34 m/s, 357° | - | - |
| 1777978057 | 27.78° C | 37% | 1007.9 hPa | - | 0.45 m/s, 61° | - | - |
| 1777977750 | 27.78° C | 37% | 1008 hPa | - | 0.89 m/s, 39° | - | - |
| 1777977443 | 27.78° C | 36% | 1008 hPa | - | 0.89 m/s, 84° | - | - |
| 1777977135 | 27.78° C | 37% | 1008.1 hPa | - | 0.89 m/s, 10° | - | - |
| 1777976828 | 27.78° C | 38% | 1008.1 hPa | - | 0.89 m/s, 39° | - | - |
| 1777976520 | 27.78° C | 36% | 1008.1 hPa | - | 0.89 m/s, 31° | - | - |
| 1777976213 | 27.78° C | 38% | 1008.1 hPa | - | 0.45 m/s, 41° | - | - |
| 1777975905 | 27.78° C | 36% | 1008.2 hPa | - | 0.45 m/s, 40° | - | - |
| 1777975598 | 27.22° C | 39% | 1008.2 hPa | - | 0.89 m/s, 32° | - | - |
| 1777975291 | 27.22° C | 39% | 1008.2 hPa | - | 0.89 m/s, 62° | - | - |
| 1777974983 | 27.22° C | 39% | 1008.2 hPa | - | 0.45 m/s, 53° | - | - |
| 1777974368 | 26.67° C | 40% | 1008.3 hPa | - | 0.89 m/s, 88° | - | - |
| 1777974061 | 27.22° C | 40% | 1008.4 hPa | - | 0.89 m/s, 60° | - | - |
| 1777973754 | 27.22° C | 40% | 1008.4 hPa | - | 0.89 m/s, 20° | - | - |
| 1777973447 | 27.22° C | 40% | 1008.5 hPa | - | 0.45 m/s, 7° | - | - |
| 1777973139 | 27.22° C | 40% | 1008.4 hPa | - | 0.89 m/s, 63° | - | - |
| 1777972832 | 27.22° C | 40% | 1008.5 hPa | - | 0.89 m/s, 25° | - | - |
| 1777972524 | 26.67° C | 41% | 1008.5 hPa | - | 0.89 m/s, 9° | - | - |
| 1777972217 | 26.67° C | 41% | 1008.6 hPa | - | 0.45 m/s, 77° | - | - |
| 1777971909 | 27.22° C | 42% | 1008.6 hPa | - | 0.45 m/s, 26° | - | - |
| 1777971602 | 26.67° C | 44% | 1008.7 hPa | - | 0.89 m/s, 8° | - | - |
| 1777971295 | 26.11° C | 45% | 1008.7 hPa | - | 0.45 m/s, 7° | - | - |
| 1777970680 | 25.56° C | 45% | 1008.9 hPa | - | 0.89 m/s, 77° | - | - |
* Rain since midnight (hover to see other rain measurements)
** Current wind speed in m/s (hover to see current wind gust speed)